{"data":{"norad_id":62948,"intl_designator":"2025-029A","name":"STARLINK-32728","alt_names":[],"object_type":"PAYLOAD","status":"ACTIVE","operator":null,"country":"US","launch_date":"2025-02-11","launch_site_code":"AFWTR","launch_vehicle":null,"mission":null,"orbit_class":"UNKNOWN","rcs_meters":null,"size_class":null,"mass_kg":null,"dimensions":null,"purposes":["comms"],"wikipedia_slug":null,"has_3d_model":false,"image_url":null,"decayed_at":null,"tle_current":{"epoch":"2026-05-24T14:31:01.185312Z","epoch_age_seconds":119903,"freshness":"FRESH","line1":"1 62948U 25029A   26144.60487483  .00005614  00000+0  20155-3 0  9995","line2":"2 62948  53.1574 237.4938 0001210  88.8436 271.2703 15.30196085 73014","mean_motion":15.30196085,"eccentricity":0.000121,"inclination_deg":53.1574,"raan_deg":237.4938,"arg_perigee_deg":88.8436,"mean_anomaly_deg":271.2703,"bstar":0.00020155,"rev_number":7301,"period_min":94.10558647456,"perigee_km":474.39750191373,"apogee_km":476.05601594339,"semimajor_km":6853.3637589286,"source":"CELESTRAK","updated_at":"2026-05-25T13:38:19.823899Z"}}}